Change the Weather History Date:

Friday, April 11, 2014

  Actual Average (KBTR) Record (KBTR)
Temperature  
Mean Temperature 64 °F 67 °F  
Max Temperature 77 °F 78 °F 90 °F (1963)
Min Temperature 51 °F 56 °F 37 °F (1973)
Degree Days  
Heating Degree Days 1 2  
Month to date heating degree days 30  
Since 1 July heating degree days 1532  
Cooling Degree Days 0 4  
Month to date cooling degree days 38  
Year to date cooling degree days 127  
Growing Degree Days 14 (Base 50)    
Moisture  
Dew Point 56 °F    
Average Humidity 75    
Maximum Humidity 100    
Minimum Humidity 46    
Precipitation  
Precipitation 0.00 in 0.16 in 5.57 in (1995)
Month to date precipitation 1.71  
Year to date precipitation 16.88  
Snow  
Snow 0.00 in - - ()
Month to date snowfall  
Since 1 July snowfall  
Snow Depth -    
Sea Level Pressure  
Sea Level Pressure 30.14 in    
Wind  
Wind Speed 3 mph (South)    
Max Wind Speed 12 mph    
Max Gust Speed 18 mph    
Visibility 10 miles    
Events      
T = Trace of Precipitation, MM = Missing Value Source: NWS Daily Summary

Daily Weather History Graph

Daily Weather History Graph

Search for Another Location

Airport or City:

Trip Planner

Search our weather history database for the weather conditions in past years. The results will help you decide how hot, cold, wet, or windy it might be!

Date:

Astronomy

Apr. 11, 2014 Rise Set
Actual Time 6:41 AM CDT 7:28 PM CDT
Civil Twilight 6:16 AM CDT 7:53 PM CDT
Nautical Twilight 5:48 AM CDT 8:22 PM CDT
Astronomical Twilight 5:18 AM CDT 8:51 PM CDT
Moon 4:22 PM CDT (4/11) 4:21 AM CDT (4/11)
Length of Visible Light 13h 36m
Length of Day
12h 47m
Waxing Gibbous, 87% of the Moon is Illuminated
Apr 11
Waxing Gibbous
Apr 15
Full
Apr 22
Last Quarter
Apr 29
New
May 6
First Quarter

Hourly Weather History & Observations

Time (CDT) Temp. Dew Point Humidity Pressure Visibility Wind Dir Wind Speed Gust Speed Precip Events Conditions
12:15 AM 58.3 °F 52.5 °F 81% 30.16 in 10.0 mi SSE 5.8 mph - N/A   Clear
12:35 AM 58.1 °F 52.5 °F 82% 30.16 in 10.0 mi South 4.6 mph - N/A   Clear
12:55 AM 58.3 °F 52.5 °F 81% 30.16 in 10.0 mi SSE 3.5 mph - N/A   Clear
1:15 AM 57.7 °F 52.7 °F 83% 30.16 in 10.0 mi Calm Calm - N/A   Clear
1:35 AM 57.6 °F 52.9 °F 84% 30.15 in 10.0 mi Calm Calm - N/A   Clear
1:55 AM 55.9 °F 53.2 °F 91% 30.13 in 10.0 mi Calm Calm - N/A   Clear
2:15 AM 53.8 °F 52.2 °F 94% 30.13 in 10.0 mi Calm Calm - N/A   Clear
2:35 AM 53.2 °F 52.5 °F 97% 30.13 in 10.0 mi Calm Calm - N/A   Clear
2:55 AM 53.4 °F 53.1 °F 99% 30.12 in 10.0 mi Calm Calm - N/A   Clear
3:15 AM 52.7 °F 52.5 °F 99% 30.12 in 10.0 mi Calm Calm - N/A   Clear
3:35 AM 52.0 °F 52.0 °F 100% 30.11 in 7.0 mi Calm Calm - N/A   Scattered Clouds
3:55 AM 51.6 °F 51.6 °F 100% 30.11 in 7.0 mi Calm Calm - N/A   Scattered Clouds
4:15 AM 51.4 °F 51.4 °F 100% 30.13 in 10.0 mi Calm Calm - N/A   Mostly Cloudy
4:35 AM 52.2 °F 52.2 °F 100% 30.13 in 10.0 mi Calm Calm - N/A   Scattered Clouds
4:55 AM 52.9 °F 52.9 °F 100% 30.13 in 10.0 mi Calm Calm - N/A   Mostly Cloudy
5:15 AM 52.7 °F 52.7 °F 100% 30.13 in 10.0 mi Calm Calm - N/A   Overcast
5:35 AM 53.2 °F 53.1 °F 99% 30.14 in 10.0 mi Calm Calm - N/A   Overcast
5:55 AM 54.0 °F 53.8 °F 99% 30.14 in 10.0 mi Calm Calm - N/A   Mostly Cloudy
6:15 AM 53.1 °F 53.1 °F 100% 30.15 in 10.0 mi Calm Calm - N/A   Mostly Cloudy
6:35 AM 52.9 °F 52.9 °F 100% 30.16 in 7.0 mi Calm Calm - N/A   Scattered Clouds
6:55 AM 53.6 °F 53.6 °F 100% 30.16 in 10.0 mi Calm Calm - N/A   Mostly Cloudy
7:15 AM 53.2 °F 53.2 °F 100% 30.17 in 10.0 mi Calm Calm - N/A   Scattered Clouds
7:55 AM 58.5 °F 57.2 °F 96% 30.18 in 10.0 mi Calm Calm - N/A   Mostly Cloudy
8:15 AM 60.3 °F 58.1 °F 93% 30.18 in 10.0 mi Calm Calm - N/A   Overcast
8:35 AM 61.5 °F 58.8 °F 91% 30.18 in 10.0 mi Calm Calm - N/A   Overcast
8:55 AM 64.0 °F 60.1 °F 87% 30.19 in 10.0 mi Calm Calm - N/A   Scattered Clouds
9:15 AM 65.5 °F 60.3 °F 83% 30.20 in 10.0 mi Calm Calm - N/A   Scattered Clouds
9:35 AM 66.7 °F 61.5 °F 83% 30.20 in 10.0 mi Calm Calm - N/A   Overcast
9:55 AM 68.7 °F 60.8 °F 76% 30.19 in 10.0 mi SSE 5.8 mph - N/A   Mostly Cloudy
10:15 AM 69.6 °F 60.1 °F 72% 30.19 in - SSE 6.9 mph - N/A   Scattered Clouds
10:35 AM 70.7 °F 60.1 °F 69% 30.19 in - South 5.8 mph - N/A   Scattered Clouds
10:55 AM 71.1 °F 58.8 °F 65% 30.19 in 10.0 mi SSW 4.6 mph - N/A   Mostly Cloudy
11:15 AM 72.5 °F 57.2 °F 59% 30.20 in - South 11.5 mph 18.4 mph N/A   Mostly Cloudy
11:35 AM 71.8 °F 57.7 °F 61% 30.20 in 10.0 mi South 6.9 mph - N/A   Overcast
11:55 AM 74.1 °F 57.9 °F 57% 30.20 in 10.0 mi SSE 8.1 mph - N/A   Mostly Cloudy
12:15 PM 72.9 °F 58.1 °F 60% 30.20 in - SSW 6.9 mph - N/A   Mostly Cloudy
12:35 PM 73.6 °F 57.9 °F 58% 30.19 in 10.0 mi SSE 5.8 mph - N/A   Mostly Cloudy
12:55 PM 74.8 °F 58.6 °F 57% 30.18 in 10.0 mi SW 5.8 mph - N/A   Mostly Cloudy
1:15 PM 74.5 °F 57.6 °F 55% 30.18 in - SSW 9.2 mph - N/A   Mostly Cloudy
1:35 PM 75.2 °F 58.5 °F 56% 30.16 in 10.0 mi South 5.8 mph - N/A   Mostly Cloudy
1:55 PM 76.1 °F 58.3 °F 54% 30.15 in - SSE 6.9 mph 16.1 mph N/A   Scattered Clouds
2:15 PM 76.1 °F 56.5 °F 50% 30.15 in - SSE 4.6 mph - N/A   Scattered Clouds
2:55 PM 76.8 °F 56.1 °F 49% 30.12 in - South 6.9 mph - N/A   Mostly Cloudy
3:15 PM 77.7 °F 56.8 °F 48% 30.12 in 10.0 mi South 10.4 mph - N/A   Scattered Clouds
3:35 PM 76.1 °F 55.6 °F 49% 30.10 in 10.0 mi South 4.6 mph - N/A   Scattered Clouds
3:55 PM 76.6 °F 56.5 °F 50% 30.10 in - South 6.9 mph - N/A   Scattered Clouds
4:15 PM 76.8 °F 56.7 °F 50% 30.09 in 10.0 mi SSE 8.1 mph - N/A   Scattered Clouds
4:35 PM 77.4 °F 55.9 °F 47% 30.09 in 10.0 mi SSE 5.8 mph - N/A   Scattered Clouds
4:55 PM 76.6 °F 55.9 °F 49% 30.09 in 10.0 mi South 4.6 mph - N/A   Mostly Cloudy
5:15 PM 77.4 °F 55.2 °F 46% 30.08 in 10.0 mi SE 6.9 mph - N/A   Scattered Clouds
5:35 PM 77.7 °F 55.2 °F 46% 30.08 in - SSE 5.8 mph - N/A   Scattered Clouds
5:55 PM 76.3 °F 55.2 °F 48% 30.08 in - SSE 6.9 mph - N/A   Clear
6:15 PM 75.2 °F 57.2 °F 53% 30.08 in 10.0 mi South 5.8 mph - N/A   Clear
6:35 PM 74.3 °F 57.2 °F 55% 30.08 in - South 4.6 mph - N/A   Clear
6:55 PM 74.5 °F 56.7 °F 54% 30.08 in 10.0 mi South 4.6 mph - N/A   Scattered Clouds
7:15 PM 73.6 °F 56.5 °F 55% 30.08 in 10.0 mi SSE 5.8 mph - N/A   Mostly Cloudy
7:35 PM 71.4 °F 56.8 °F 60% 30.08 in 10.0 mi SSE 5.8 mph - N/A   Mostly Cloudy
7:55 PM 69.6 °F 57.2 °F 65% 30.08 in 10.0 mi SSE 4.6 mph - N/A   Mostly Cloudy
8:15 PM 70.2 °F 56.8 °F 63% 30.09 in 10.0 mi SSE 6.9 mph - N/A   Scattered Clouds
8:35 PM 69.8 °F 57.2 °F 64% 30.09 in 10.0 mi SSE 6.9 mph - N/A   Clear
8:55 PM 68.5 °F 57.9 °F 69% 30.10 in 10.0 mi SSE 6.9 mph - N/A   Clear
9:15 PM 67.1 °F 58.6 °F 74% 30.11 in 10.0 mi SSE 3.5 mph - N/A   Clear
9:35 PM 66.7 °F 59.0 °F 76% 30.11 in 10.0 mi Calm Calm - N/A   Clear
9:55 PM 65.5 °F 59.2 °F 80% 30.12 in 10.0 mi Calm Calm - N/A   Clear
10:15 PM 64.9 °F 59.2 °F 82% 30.12 in 10.0 mi South 3.5 mph - N/A   Clear
10:35 PM 64.6 °F 59.2 °F 83% 30.12 in 10.0 mi SSE 4.6 mph - N/A   Clear
10:55 PM 65.1 °F 60.3 °F 84% 30.11 in 10.0 mi SSE 5.8 mph - N/A   Clear
11:15 PM 63.7 °F 59.9 °F 87% 30.11 in 10.0 mi South 4.6 mph - N/A   Clear
11:35 PM 63.5 °F 59.9 °F 88% 30.11 in 10.0 mi South 3.5 mph - N/A   Clear
11:55 PM 63.7 °F 60.8 °F 90% 30.11 in 10.0 mi Calm Calm - N/A   Clear